Location: L�tisburg
(47.3947°N, 9.0820°E)
Time: 07:56:16
(UTC+00:00)

SL-16 R/B - Visible Passes

Search period start: 21 June 2021 00:00
Search period end: 01 July 2021 00:00
Orbit: 843 x 845 km, 71.0° (Epoch: 20 June)

Date Brightness Start Highest point End Pass type
(mag) Time Alt. Az. Time Alt. Az. Time Alt. Az.
21 Jun 5.7 02:10:32 10° N 02:12:36 12° NNE 02:14:41 10° NE visible
21 Jun 4.2 20:32:22 10° WSW 20:37:29 34° NW 20:42:38 10° NNE visible
22 Jun 5.8 01:56:18 10° N 01:58:13 12° NNE 02:00:09 10° NE visible
22 Jun 4.1 20:17:59 10° WSW 20:23:08 35° NW 20:28:18 10° NNE visible
23 Jun 5.9 01:42:05 10° NNE 01:43:50 11° NNE 01:45:36 10° NE visible
23 Jun 4.1 20:03:36 10° WSW 20:08:47 36° NW 20:14:00 10° NNE visible
23 Jun 5.9 21:54:19 10° NNW 21:54:44 10° NNW 21:55:09 10° NNW visible
24 Jun 5.9 01:27:53 10° NNE 01:29:28 11° NNE 01:31:02 10° NE visible
24 Jun 5.9 21:39:29 10° NW 21:40:21 10° NNW 21:41:13 10° NNW visible
25 Jun 5.9 01:13:41 10° NNE 01:15:04 11° NNE 01:16:27 10° NE visible
25 Jun 6.0 21:24:48 10° NW 21:25:57 11° NNW 21:27:07 10° NNW visible
26 Jun 5.8 00:59:32 10° NNE 01:00:41 11° NNE 01:01:49 10° NE visible
26 Jun 4.0 02:41:16 10° NNW 02:46:34 38° NE 02:51:49 10° ESE visible
26 Jun 5.9 21:10:10 10° NW 21:11:34 11° NNW 21:12:58 10° NNW visible
27 Jun 5.8 00:45:27 10° NNE 00:46:18 10° NNE 00:47:09 10° NE visible
27 Jun 4.0 02:26:57 10° NNW 02:32:13 37° NE 02:37:26 10° ESE visible
27 Jun 5.9 20:55:35 10° NW 20:57:11 11° NNW 20:58:46 10° NNW visible
28 Jun 5.8 00:31:32 10° NNE 00:31:54 10° NNE 00:32:16 10° NNE visible
28 Jun 4.0 02:12:39 10° NNW 02:17:52 36° NE 02:23:02 10° ESE visible
28 Jun 5.8 20:41:02 10° NW 20:42:48 11° NNW 20:44:34 10° NNW visible
29 Jun 4.0 01:58:20 10° NNW 02:03:30 34° NE 02:08:39 10° ESE visible
29 Jun 5.7 20:26:29 10° NW 20:28:25 12° NNW 20:30:21 10° N visible
30 Jun 4.1 01:44:01 10° NNW 01:49:09 34° NE 01:54:16 10° ESE visible
30 Jun 5.6 20:11:57 10° NW 20:14:02 12° NNW 20:16:07 10° N visible
